This demonstration page uses our WeatherBlox Daily Observations layout. Learn more.

Left ArrowRight Arrow

34.02893, -84.19858

Hourly Observations for October 22, 2015

Temp ( °F °C ) Dew Point ( °F °C ) Humidity (%) Winds ( mph kmh ) Pressure ( in mb ) Visibility ( mi km ) Precip ( " mm )
12:53 am 00:53 Clear 50 10 50 10 100 100 Calm 30.30 1026 9 14 0.00 0.00
1:53 am 01:53 Clear 50 10 49 9.4 96 96 Calm 30.29 1026 9 14 0.00 0.00
2:53 am 02:53 Clear 50 10 49 9.4 96 96 NNE 3 6 30.28 1026 10 16 0.00 0.00
3:53 am 03:53 Clear 51 10.6 49 9.4 92 92 Calm 30.28 1025 10 16 0.00 0.00
4:53 am 04:53 Clear 50 10 49 9.4 96 96 Calm 30.27 1025 9 14 0.00 0.00
5:53 am 05:53 Clear 49 9.4 48 8.9 97 97 Calm 30.28 1025 9 14 0.00 0.00
6:53 am 06:53 Clear 50 10 49 9.4 96 96 Calm 30.30 1026 8 13 0.00 0.00
7:53 am 07:53 Sunny 48 8.9 47 8.3 96 96 N 3 6 30.33 1027 7 11 0.00 0.00
7:55 am 07:55 Sunny 48 8.9 47 8.3 96 96 N 3 6 30.36 1028 10 16 0.00 0.00
8:53 am 08:53 Sunny 57 13.9 53 11.7 87 87 Calm 30.33 1027 10 16 0.00 0.00
9:53 am 09:53 Sunny 64 17.8 53 11.7 68 68 Calm 30.35 1028 10 16 0.00 0.00
10:53 am 10:53 Sunny 68 20 55 12.8 63 63 Calm 30.34 1028 10 16 0.00 0.00
11:53 am 11:53 Sunny 72 22.2 59 15 64 64 S 5 7 30.33 1027 10 16 0.00 0.00
12:53 pm 12:53 Mostly Sunny 73 22.8 58 14.4 59 59 Calm 30.32 1027 10 16 0.00 0.00
1:53 pm 13:53 Sunny 76 24.4 57 13.9 52 52 Calm 30.29 1026 10 16 0.00 0.00
2:53 pm 14:53 Mostly Sunny 79 26.1 57 13.9 47 47 N 6 9 30.25 1024 10 16 0.00 0.00
3:53 pm 15:53 Sunny 77 25 58 14.4 52 52 SW 5 7 30.23 1024 10 16 0.00 0.00
4:53 pm 16:53 Sunny 76 24.4 56 13.3 50 50 S 5 7 30.22 1024 10 16 0.00 0.00
5:53 pm 17:53 Sunny 73 22.8 59 15 62 62 Calm 30.22 1024 8 13 0.00 0.00
6:53 pm 18:53 Mostly Cloudy 69 20.6 61 16.1 76 76 Calm 30.22 1023 10 16 0.00 0.00
7:53 pm 19:53 Mostly Clear 65 18.3 60 15.6 84 84 SE 3 6 30.24 1024 10 16 0.00 0.00
8:53 pm 20:53 Clear 62 16.7 60 15.6 93 93 Calm 30.24 1024 10 16 0.00 0.00
9:53 pm 21:53 Clear 60 15.6 59 15 96 96 Calm 30.24 1024 10 16 0.00 0.00
10:53 pm 22:53 Clear 58 14.4 57 13.9 97 97 undefined N/A 30.23 1024 10 16 0.00 0.00
11:53 pm 23:53 Clear 57 13.9 57 13.9 100 100 Calm 30.22 1024 9 14 0.00 0.00

Powered by AerisWeather